Location: Noordwijk
(52.2400°N, 4.4500°E)
Time: 00:42:58
(UTC+00:00)

TIGRISAT - Pass Details

Date: 01 December 2022
Orbit: 601 x 684 km, 97.7° (Epoch: 29 January)

Event Time Altitude Azimuth Distance (km) Brightness Sun altitude
Rises 03:56:49 0° 142° (SE) 2,890 ? -31.4°
Reaches altitude 10° 03:59:04 10° 135° (SE) 2,000 ? -31.0°
Enters shadow 04:02:55 39° 74° (ENE) 962 ? -30.5°
